{"data":{"norad_id":63307,"epoch":"2026-05-24T18:00:19.933344Z","epoch_age_seconds":93034,"freshness":"FRESH","line1":"1 63307U 25057A   26144.75023071  .00202594  00000+0  15415-2 0  9999","line2":"2 63307  43.0006 165.7348 0000723 311.1637  48.9168 15.70881932 69142","mean_motion":15.70881932,"eccentricity":7.23e-5,"inclination_deg":43.0006,"raan_deg":165.7348,"arg_perigee_deg":311.1637,"mean_anomaly_deg":48.9168,"bstar":0.0015415,"rev_number":6914,"period_min":91.668251487662,"perigee_km":355.88830949772,"apogee_km":356.86211996397,"semimajor_km":6734.5122147308,"source":"CELESTRAK","updated_at":"2026-05-25T13:38:19.929180Z"}}